This is the latest recevied weather packets stored in our database for station/object WD4HMR. If no packets are shown the sender has not sent any weather packets the latest 10 day(s).
| Time | Temp. | Humidity | Pressure | Rain* | Wind** | Luminosity | Snow |
|---|---|---|---|---|---|---|---|
| 1777750907 | 18.89° C | 39% | 1016.3 hPa | 0 mm | - | - | - |
| 1777750487 | 18.33° C | 39% | 1016.3 hPa | 0 mm | - | - | - |
| 1777750068 | 18.33° C | 38% | 1016.2 hPa | 0 mm | - | - | - |
| 1777749648 | 18.33° C | 39% | 1016.3 hPa | 0 mm | - | - | - |
| 1777749227 | 18.33° C | 38% | 1016.3 hPa | 0 mm | - | - | - |
| 1777748807 | 18.33° C | 41% | 1016.2 hPa | 0 mm | - | - | - |
| 1777748387 | 18.33° C | 41% | 1016.4 hPa | 0 mm | - | - | - |
| 1777747967 | 18.33° C | 42% | 1016.4 hPa | 0 mm | - | - | - |
| 1777747547 | 17.78° C | 44% | 1016.4 hPa | 0 mm | - | - | - |
| 1777747128 | 17.78° C | 43% | 1016.4 hPa | 0 mm | - | - | - |
| 1777746708 | 17.78° C | 43% | 1016.6 hPa | 0 mm | - | - | - |
| 1777746287 | 17.22° C | 43% | 1016.6 hPa | 0 mm | - | - | - |
| 1777745867 | 17.22° C | 44% | 1016.6 hPa | 0 mm | - | - | - |
| 1777745447 | 17.22° C | 45% | 1016.7 hPa | 0 mm | - | - | - |
| 1777745028 | 17.22° C | 44% | 1016.7 hPa | 0 mm | - | - | - |
| 1777744607 | 17.22° C | 48% | 1017 hPa | 0 mm | - | - | - |
| 1777744187 | 17.22° C | 47% | 1016.9 hPa | 0 mm | - | - | - |
| 1777743769 | 16.67° C | 48% | 1016.9 hPa | 0 mm | - | - | - |
| 1777743348 | 16.67° C | 48% | 1017 hPa | 0 mm | - | - | - |
| 1777742927 | 16.67° C | 47% | 1016.9 hPa | 0 mm | - | - | - |
| 1777742507 | 16.11° C | 49% | 1016.9 hPa | 0 mm | - | - | - |
| 1777742086 | 16.11° C | 50% | 1017 hPa | 0 mm | - | - | - |
| 1777741666 | 16.11° C | 51% | 1017.1 hPa | 0 mm | - | - | - |
| 1777741246 | 15.56° C | 53% | 1017 hPa | 0 mm | - | - | - |
| 1777740827 | 15.56° C | 53% | 1017.1 hPa | 0 mm | - | - | - |
* Rain latest hour (hover to see other rain measurements)
** Current wind speed in m/s (hover to see current wind gust speed)